• în România
  • Lista ţărilor
  • Pe 7 zile
  • Temperatura apei
  • Hartă satelitară
  • Meteo pe hartă
  • Widget-uri
  • user-avatar
    Intrare

    Meteo pe oră la Uige

    Astăzi, 22 Iulie, Sâmbătă

    Timp Temperatura Precipitaţii Vânt Presiune Umiditate
    00:00 +20°C° 0 mm 2 m/s 692 mmHg 79%
    01:00 +20°C° 0 mm 1 m/s 692 mmHg 88%
    02:00 +20°C° 0 mm 1 m/s 692 mmHg 89%
    03:00 +19°C° 0 mm 2 m/s 692 mmHg 89%
    04:00 +19°C° 0 mm 2 m/s 692 mmHg 90%
    05:00 +19°C° 0 mm 2 m/s 693 mmHg 88%
    06:00 +19°C° 0 mm 2 m/s 693 mmHg 86%
    07:00 +19°C° 0 mm 2 m/s 693 mmHg 85%
    08:00 +20°C° 0 mm 2 m/s 694 mmHg 79%
    09:00 +23°C° 0 mm 2 m/s 694 mmHg 73%
    10:00 +24°C° 0 mm 2 m/s 694 mmHg 66%
    11:00 +26°C° 0 mm 2 m/s 694 mmHg 56%
    12:00 +29°C° 0 mm 2 m/s 694 mmHg 47%
    13:00 +32°C° 0 mm 2 m/s 694 mmHg 37%
    14:00 +32°C° 0 mm 2 m/s 693 mmHg 35%
    15:00 +32°C° 0 mm 2 m/s 693 mmHg 34%
    16:00 +32°C° 0 mm 2 m/s 692 mmHg 33%
    17:00 +30°C° 0 mm 2 m/s 692 mmHg 38%
    18:00 +28°C° 0 mm 2 m/s 692 mmHg 44%
    19:00 +25°C° 0 mm 2 m/s 692 mmHg 50%
    20:00 +24°C° 0 mm 2 m/s 692 mmHg 57%
    21:00 +23°C° 0 mm 2 m/s 692 mmHg 63%
    22:00 +21°C° 0 mm 2 m/s 693 mmHg 70%
    23:00 +21°C° 0 mm 1 m/s 693 mmHg 75%

    Mâine, 23 Iulie, Duminică

    Timp Temperatura Precipitaţii Vânt Presiune Umiditate
    00:00 +20°C° 0 mm 1 m/s 692 mmHg 80%
    01:00 +19°C° 0 mm 1 m/s 692 mmHg 85%
    02:00 +18°C° 0 mm 1 m/s 692 mmHg 89%
    03:00 +18°C° 0 mm 1 m/s 692 mmHg 92%
    04:00 +16°C° 0 mm 1 m/s 692 mmHg 95%
    05:00 +18°C° 0 mm 1 m/s 692 mmHg 93%
    06:00 +18°C° 0 mm 1 m/s 692 mmHg 91%
    07:00 +18°C° 0 mm 1 m/s 693 mmHg 89%
    08:00 +22°C° 0 mm 1 m/s 694 mmHg 74%
    09:00 +25°C° 0 mm 1 m/s 694 mmHg 58%
    10:00 +28°C° 0 mm 2 m/s 695 mmHg 43%
    11:00 +30°C° 0 mm 2 m/s 695 mmHg 37%
    12:00 +34°C° 0 mm 2 m/s 694 mmHg 31%
    13:00 +36°C° 0 mm 2 m/s 694 mmHg 25%
    14:00 +35°C° 0 mm 2 m/s 693 mmHg 25%
    15:00 +35°C° 0 mm 2 m/s 692 mmHg 24%
    16:00 +35°C° 0 mm 2 m/s 692 mmHg 24%
    17:00 +32°C° 0 mm 2 m/s 692 mmHg 29%
    18:00 +29°C° 0 mm 2 m/s 692 mmHg 34%
    19:00 +27°C° 0 mm 2 m/s 692 mmHg 39%
    20:00 +25°C° 0 mm 2 m/s 693 mmHg 47%
    21:00 +24°C° 0 mm 2 m/s 693 mmHg 55%
    22:00 +21°C° 0 mm 2 m/s 693 mmHg 62%
    23:00 +20°C° 0 mm 2 m/s 693 mmHg 68%

    Poimâine, 24 Iulie, Luni

    Timp Temperatura Precipitaţii Vânt Presiune Umiditate
    00:00 +19°C° 0 mm 2 m/s 693 mmHg 74%
    01:00 +18°C° 0 mm 2 m/s 693 mmHg 80%
    02:00 +18°C° 0 mm 2 m/s 693 mmHg 83%
    03:00 +18°C° 0 mm 2 m/s 692 mmHg 86%
    04:00 +17°C° 0 mm 2 m/s 692 mmHg 88%
    05:00 +17°C° 0 mm 2 m/s 692 mmHg 87%
    06:00 +17°C° 0 mm 2 m/s 693 mmHg 86%
    07:00 +17°C° 0 mm 2 m/s 693 mmHg 85%
    08:00 +21°C° 0 mm 2 m/s 694 mmHg 70%
    09:00 +25°C° 0 mm 2 m/s 695 mmHg 56%
    10:00 +28°C° 0 mm 2 m/s 695 mmHg 41%
    11:00 +30°C° 0 mm 2 m/s 695 mmHg 36%
    12:00 +32°C° 0 mm 2 m/s 694 mmHg 30%
    13:00 +35°C° 0 mm 2 m/s 694 mmHg 25%
    14:00 +35°C° 0 mm 2 m/s 693 mmHg 25%
    15:00 +35°C° 0 mm 3 m/s 692 mmHg 24%
    16:00 +35°C° 0 mm 3 m/s 692 mmHg 24%
    17:00 +31°C° 0 mm 3 m/s 692 mmHg 30%
    18:00 +29°C° 0 mm 3 m/s 692 mmHg 35%
    19:00 +27°C° 0 mm 3 m/s 692 mmHg 40%
    20:00 +25°C° 0 mm 2 m/s 693 mmHg 48%
    21:00 +23°C° 0 mm 2 m/s 693 mmHg 56%
    22:00 +21°C° 0 mm 2 m/s 693 mmHg 64%
    23:00 +20°C° 0 mm 2 m/s 693 mmHg 71%

    25 Iulie, Marţi

    Timp Temperatura Precipitaţii Vânt Presiune Umiditate
    00:00 +19°C° 0 mm 2 m/s 693 mmHg 77%
    01:00 +18°C° 0 mm 2 m/s 693 mmHg 83%
    02:00 +18°C° 0 mm 2 m/s 692 mmHg 84%
    03:00 +17°C° 0 mm 2 m/s 692 mmHg 86%
    04:00 +17°C° 0 mm 2 m/s 692 mmHg 87%
    05:00 +17°C° 0 mm 2 m/s 692 mmHg 86%
    06:00 +17°C° 0 mm 2 m/s 693 mmHg 85%
    07:00 +17°C° 0 mm 2 m/s 693 mmHg 84%
    08:00 +20°C° 0 mm 2 m/s 694 mmHg 71%
    09:00 +24°C° 0 mm 2 m/s 694 mmHg 57%
    10:00 +26°C° 0 mm 2 m/s 695 mmHg 44%
    11:00 +29°C° 0 mm 2 m/s 694 mmHg 37%
    12:00 +31°C° 0 mm 2 m/s 694 mmHg 31%
    13:00 +34°C° 0 mm 2 m/s 693 mmHg 24%
    14:00 +34°C° 0 mm 2 m/s 693 mmHg 24%
    15:00 +34°C° 0 mm 2 m/s 692 mmHg 24%
    16:00 +34°C° 0 mm 2 m/s 691 mmHg 23%
    17:00 +31°C° 0 mm 2 m/s 691 mmHg 28%
    18:00 +29°C° 0 mm 2 m/s 692 mmHg 33%
    19:00 +26°C° 0 mm 2 m/s 692 mmHg 38%
    20:00 +25°C° 0 mm 2 m/s 692 mmHg 46%
    21:00 +23°C° 0 mm 2 m/s 693 mmHg 54%
    22:00 +21°C° 0 mm 2 m/s 693 mmHg 61%
    23:00 +20°C° 0 mm 2 m/s 693 mmHg 68%

    26 Iulie, Miercuri

    Timp Temperatura Precipitaţii Vânt Presiune Umiditate
    00:00 +19°C° 0 mm 2 m/s 692 mmHg 74%
    01:00 +18°C° 0 mm 2 m/s 692 mmHg 80%
    02:00 +17°C° 0 mm 2 m/s 692 mmHg 83%
    03:00 +17°C° 0 mm 2 m/s 691 mmHg 86%
    04:00 +16°C° 0 mm 2 m/s 691 mmHg 89%
    05:00 +16°C° 0 mm 1 m/s 692 mmHg 88%
    06:00 +16°C° 0 mm 1 m/s 692 mmHg 86%
    07:00 +18°C° 0 mm 1 m/s 693 mmHg 84%
    08:00 +21°C° 0 mm 1 m/s 693 mmHg 70%
    09:00 +24°C° 0 mm 1 m/s 694 mmHg 56%
    10:00 +28°C° 0 mm 1 m/s 695 mmHg 42%
    11:00 +30°C° 0 mm 1 m/s 694 mmHg 36%
    12:00 +33°C° 0 mm 1 m/s 694 mmHg 30%
    13:00 +35°C° 0 mm 1 m/s 693 mmHg 23%
    14:00 +35°C° 0 mm 1 m/s 692 mmHg 23%
    15:00 +34°C° 0 mm 1 m/s 692 mmHg 23%
    16:00 +35°C° 0 mm 2 m/s 691 mmHg 23%
    17:00 +32°C° 0 mm 2 m/s 691 mmHg 28%
    18:00 +29°C° 0 mm 2 m/s 691 mmHg 33%
    19:00 +27°C° 0 mm 2 m/s 692 mmHg 38%
    20:00 +25°C° 0 mm 2 m/s 692 mmHg 43%
    21:00 +24°C° 0 mm 1 m/s 692 mmHg 49%
    22:00 +22°C° 0 mm 1 m/s 693 mmHg 55%
    23:00 +21°C° 0 mm 1 m/s 692 mmHg 61%

    27 Iulie, Joi

    Timp Temperatura Precipitaţii Vânt Presiune Umiditate
    00:00 +20°C° 0 mm 1 m/s 692 mmHg 67%
    01:00 +19°C° 0 mm 1 m/s 692 mmHg 74%
    02:00 +19°C° 0 mm 1 m/s 692 mmHg 79%
    03:00 +18°C° 0 mm 1 m/s 691 mmHg 84%
    04:00 +16°C° 0 mm 1 m/s 691 mmHg 89%
    05:00 +18°C° 0 mm 1 m/s 692 mmHg 87%
    06:00 +18°C° 0 mm 1 m/s 692 mmHg 86%
    07:00 +18°C° 0 mm 1 m/s 692 mmHg 85%
    08:00 +22°C° 0 mm 1 m/s 693 mmHg 68%
    09:00 +27°C° 0 mm 1 m/s 694 mmHg 51%
    10:00 +31°C° 0 mm 1 m/s 695 mmHg 34%
    11:00 +33°C° 0 mm 1 m/s 694 mmHg 30%
    12:00 +35°C° 0 mm 1 m/s 693 mmHg 26%
    13:00 +37°C° 0 mm 1 m/s 693 mmHg 22%
    14:00 +36°C° 0 mm 1 m/s 692 mmHg 24%
    15:00 +34°C° 0 mm 1 m/s 692 mmHg 26%
    16:00 +33°C° 0 mm 1 m/s 691 mmHg 28%
    17:00 +31°C° 0 mm 1 m/s 691 mmHg 31%
    18:00 +30°C° 0 mm 1 m/s 692 mmHg 34%
    19:00 +29°C° 0 mm 1 m/s 692 mmHg 36%
    20:00 +27°C° 0 mm 2 m/s 693 mmHg 43%
    21:00 +25°C° 0 mm 2 m/s 693 mmHg 50%
    22:00 +24°C° 0 mm 2 m/s 693 mmHg 57%
    23:00 +21°C° 0 mm 2 m/s 693 mmHg 64%
    Arată mai mult